This demonstration page uses our WeatherBlox Daily Observations layout. Learn more.

Left ArrowRight Arrow

39.51506, -84.39828

Hourly Observations for May 7, 2021

Temp ( °F °C ) Dew Point ( °F °C ) Humidity (%) Winds ( mph kmh ) Pressure ( in mb ) Visibility ( mi km ) Precip ( " mm )
12:15 am 00:15 Cloudy with Rain 49 9.6 49 9.3 98 98 WSW 10 17 30.00 1016 7 11 0.03 0.76
12:35 am 00:35 Cloudy with Light Rain 49 9.4 48 8.9 97 97 NW 16 26 30.00 1016 10 16 0.06 1.52
12:55 am 00:55 Cloudy with Rain 49 9.2 48 8.8 97 97 NNW 8 13 30.00 1016 7 11 0.10 2.54
1:15 am 01:15 Cloudy with Light Rain 48 9.1 48 8.9 99 99 NW 8 13 30.00 1016 10 16 0.01 0.25
1:35 am 01:35 Cloudy with Light Rain 48 9.1 48 8.9 99 99 NW 6 9 30.00 1016 10 16 0.02 0.51
1:55 am 01:55 Cloudy with Light Rain 48 9.1 48 9 99 99 W 5 7 30.00 1016 7 11 0.02 0.51
2:15 am 02:15 Cloudy with Light Rain 48 9 48 9 100 100 NW 10 17 30.00 1016 10 16 0.01 0.25
2:35 am 02:35 Cloudy 48 9.1 46 7.8 92 92 NNW 9 15 30.00 1016 10 16 0.01 0.25
2:55 am 02:55 Cloudy 48 8.7 46 7.6 93 93 N 13 20 30.00 1016 10 16 0.01 0.25
3:15 am 03:15 Cloudy 47 8.5 46 7.5 94 94 NNW 7 11 29.99 1016 10 16 N/A
3:35 am 03:35 Mostly Cloudy 47 8.3 45 7.2 93 93 NNW 8 13 29.99 1016 10 16 N/A
3:55 am 03:55 Partly Cloudy 46 8 44 6.8 92 92 NNW 9 15 29.99 1016 10 16 N/A
4:15 am 04:15 Mostly Cloudy 46 7.7 44 6.8 94 94 NNW 10 17 30.00 1016 10 16 N/A
4:35 am 04:35 Clear 44 6.9 42 5.7 92 92 NNW 10 17 30.01 1016 10 16 N/A
4:55 am 04:55 Clear 44 6.4 42 5.6 95 95 NNW 7 11 30.01 1016 10 16 N/A
5:15 am 05:15 Mostly Cloudy 43 6.3 42 5.4 94 94 NNW 7 11 30.02 1017 10 16 N/A
5:35 am 05:35 Clear 42 5.6 41 4.9 95 95 NNW 6 9 30.02 1017 10 16 N/A
5:55 am 05:55 Clear 42 5.4 40 4.7 95 95 NNW 6 9 30.02 1017 10 16 N/A
6:15 am 06:15 Clear 41 4.9 40 4.6 98 98 NW 6 9 30.04 1017 7 11 N/A
6:35 am 06:35 Partly Cloudy with Mist and Fog 40 4.7 40 4.5 99 99 NNW 6 9 30.04 1017 7 11 N/A
6:55 am 06:55 Sunny 41 5 40 4.5 97 97 NW 6 9 30.04 1017 7 11 N/A
7:15 am 07:15 Sunny with Mist and Fog 41 5 40 4.6 97 97 NNW 3 6 30.05 1018 7 11 N/A
7:35 am 07:35 Sunny 42 5.6 41 4.9 95 95 NW 5 7 30.05 1018 7 11 N/A
7:55 am 07:55 Sunny 43 6.2 41 5.2 93 93 NW 7 11 30.06 1018 10 16 N/A
8:15 am 08:15 Sunny 44 6.7 42 5.4 92 92 N 9 15 30.07 1018 10 16 N/A
8:35 am 08:35 Sunny 45 7.2 41 5.2 87 87 NNW 7 11 30.07 1018 10 16 N/A
8:55 am 08:55 Sunny 46 7.6 41 4.9 83 83 N 8 13 30.08 1018 10 16 N/A
9:15 am 09:15 Sunny 47 8.1 41 4.9 80 80 NNE 7 11 30.07 1018 10 16 N/A
9:35 am 09:35 Sunny 48 8.8 41 5.1 78 78 N 6 9 30.07 1018 10 16 N/A
9:55 am 09:55 Sunny 48 9.1 40 4.5 73 73 NE 5 7 30.07 1018 10 16 N/A
10:15 am 10:15 Sunny 50 9.8 41 5.2 73 73 NW 5 7 30.07 1018 10 16 N/A
10:35 am 10:35 Sunny 51 10.6 42 5.4 70 70 NW 6 9 30.07 1018 10 16 N/A
10:55 am 10:55 Mostly Cloudy 53 11.6 41 4.9 64 64 NW 6 9 30.06 1018 10 16 N/A
11:15 am 11:15 Cloudy 52 11.1 38 3.4 59 59 NE 5 7 30.07 1018 10 16 N/A
11:35 am 11:35 Partly Cloudy 54 12.3 40 4.5 59 59 W 6 9 30.06 1018 10 16 N/A
11:55 am 11:55 Sunny 55 12.5 38 3.5 55 55 NW 8 13 30.06 1018 10 16 N/A
12:15 pm 12:15 Mostly Cloudy 54 12.4 39 4.1 57 57 N 8 13 30.06 1018 10 16 N/A
12:35 pm 12:35 Mostly Cloudy 56 13.6 42 5.6 59 59 W 7 11 30.06 1018 10 16 N/A
12:55 pm 12:55 Mostly Cloudy 56 13.5 40 4.5 55 55 WNW 8 13 30.05 1018 10 16 N/A
1:15 pm 13:15 Partly Cloudy 57 14 41 4.8 54 54 NW 12 19 30.05 1018 10 16 N/A
1:35 pm 13:35 Partly Cloudy 59 15.2 43 5.9 54 54 W 15 24 30.04 1017 10 16 N/A
1:55 pm 13:55 Mostly Cloudy 58 14.4 39 4.1 50 50 WNW 9 15 30.03 1017 10 16 N/A
2:15 pm 14:15 Mostly Cloudy 59 14.9 39 4.1 49 49 NW 6 9 30.02 1016 10 16 N/A
2:35 pm 14:35 Mostly Cloudy 59 15 39 3.9 48 48 WNW 12 19 30.01 1016 10 16 N/A
2:55 pm 14:55 Partly Cloudy 61 16.1 39 3.7 44 44 WSW 12 19 29.99 1016 10 16 N/A
3:15 pm 15:15 Mostly Cloudy 62 16.4 40 4.2 45 45 W 13 20 29.98 1015 10 16 N/A
3:35 pm 15:35 Cloudy 59 15 38 3.1 45 45 W 12 19 29.98 1015 10 16 N/A
3:55 pm 15:55 Partly Cloudy 60 15.7 39 3.7 45 45 WSW 9 15 29.96 1015 10 16 N/A
4:15 pm 16:15 Cloudy 60 15.6 38 3.4 44 44 W 15 24 29.96 1014 10 16 N/A
4:35 pm 16:35 Mostly Cloudy 61 16 39 3.7 44 44 WSW 15 24 29.95 1014 10 16 N/A
4:55 pm 16:55 Cloudy 60 15.4 38 3.5 45 45 W 12 19 29.95 1014 10 16 N/A
5:15 pm 17:15 Cloudy with Light Rain 58 14.2 39 4.1 51 51 W 17 28 29.97 1015 10 16 N/A
5:35 pm 17:35 Mostly Cloudy with Light Rain 53 11.7 46 7.8 77 77 WNW 10 17 29.96 1015 7 11 N/A
5:55 pm 17:55 Sunny 55 12.8 45 7.3 69 69 W 7 11 29.95 1014 10 16 N/A
6:15 pm 18:15 Mostly Cloudy 55 12.5 45 7 69 69 W 5 7 29.95 1014 10 16 N/A
6:35 pm 18:35 Cloudy with Light Rain 53 11.7 47 8.5 81 81 WNW 17 28 29.99 1016 7 11 N/A
6:55 pm 18:55 Cloudy with Light Rain 50 10.2 48 8.7 91 91 W 6 9 29.98 1015 7 11 0.06 1.52
7:15 pm 19:15 Cloudy with Light Rain 50 10.1 48 8.8 92 92 WSW 9 15 29.96 1015 10 16 0.01 0.25
7:35 pm 19:35 Sunny 51 10.6 48 8.7 88 88 W 12 19 29.96 1014 10 16 0.01 0.25
8:15 pm 20:15 Mostly Cloudy 50 10 48 8.8 92 92 WSW 6 9 29.95 1014 10 16 N/A
8:35 pm 20:35 Sunny 48 9.1 47 8.5 96 96 W 5 7 29.95 1014 10 16 N/A
8:55 pm 20:55 Clear 47 8.4 47 8.4 100 100 W 6 9 29.96 1015 10 16 N/A
9:15 pm 21:15 Mostly Cloudy 48 9 46 8 94 94 NNW 6 9 29.97 1015 10 16 N/A
9:35 pm 21:35 Cloudy 49 9.3 48 9.1 99 99 N 3 6 29.98 1015 10 16 N/A
9:55 pm 21:55 Mostly Cloudy 49 9.3 48 8.9 97 97 N 3 6 29.98 1015 10 16 N/A
10:15 pm 22:15 Mostly Cloudy 48 8.8 47 8.4 97 97 NW 5 7 30.00 1016 10 16 N/A
10:35 pm 22:35 Cloudy 49 9.4 45 7.4 87 87 N 6 9 30.00 1016 10 16 N/A
10:55 pm 22:55 Cloudy 49 9.2 45 7 86 86 N 8 13 30.00 1016 10 16 N/A
11:15 pm 23:15 Partly Cloudy 48 8.8 43 6 83 83 N 7 11 30.01 1016 10 16 N/A
11:35 pm 23:35 Cloudy 47 8.5 41 5.2 80 80 N 7 11 30.01 1016 10 16 N/A
11:55 pm 23:55 Clear 46 7.8 40 4.7 81 81 N 5 7 30.02 1017 10 16 N/A

Powered by AerisWeather